阿斯特拉 1KR星 (ASTRA 1KR)

导读

ASTRA 1KR是由SES公司运营的通信卫星,于北京时间2006年4月20日8时发射升空。该卫星属于欧洲卫星公司ASTRA系列,主要为欧洲地区提供广播电视、通信传输服务,旨在替换在轨老化卫星,增强对欧洲大陆的信号覆盖能力,支持多套高清电视节目传输,提升了区域卫星通信广播的稳定性与服务容量,是SES网络中重要的地球静止轨道通信卫星。

Basic Information
目录编号:
29055
目录名称:
ASTRA 1KR
国际标识:
2006-012A
轨道中心:
EARTH
卫星名称:
阿斯特拉 1KR星
卫星全名:
阿斯特拉 1KR星 (ASTRA 1KR)
卫星状态:
在轨 (已飞行7363 天)
发射日期:
2006-04-20 UTC
国别 :
(SES)
星等 :
--
Orbit Information
数据来源 国际轨道数据 AOE轨道数据
星历时间 2026-06-17T00:31:36+0800
16小时前
查看轨道信息
2026-06-17T03:00:00+0800
13小时前
查看轨道信息
半长轴 42164.924km 42164.868km
偏心率 0.0003266 0.0003158
轨道倾角 0.473° 0.474°
近地点辐角 357.353° 355.014°
升交点赤经 83.197° 83.191°
平近点角 91.273° 130.820°
近地点 35773.015km 35773.415km
远地点 35800.559km 35800.047km
周期 1436.107分钟 1436.104分钟
每日圈数 1.002711 1.002713
Detailed Information
卫星平台:
A2100
平衡模式:
三轴稳定
覆盖范围:
全球
运营商:
欧洲卫星公司
运营商所在国:
卢森堡
制造商(研发单位):
洛克希德·马丁公司
制造商所在国:
美国
使用方式:
暂无
Satellite Introduction
阿斯特拉卫星是由SES阿斯特拉运营的商业通信卫星,主要提供电视直播到户业务。Astra卫星包括三个系列共19颗卫星,分别定点在三个不同轨位:Astra-1系列包括十三颗卫星,定点东经19.2度;Astra-2系列包括4颗卫星,定点东经28.2度;Astra-3系列包括2颗卫星,定点东经23.5度。该卫星仍在工作。
2D Orbit Map
3D Orbit Map
Orbit Altitude Analysis Chart
Orbit Inclination Analysis Chart
Orbit Comprehensive Analysis Chart
View Comprehensive Chart